Погода в Чайкине

Россия / Брянская область     52°32′08″N   33°13′14″E
темп.,
°C
ветер,
м/с
пор.,
м/с
влажн.,
%
обл.,
%
осадки,
мм/ч
давл.,
гПа
погр.,
м
20 апреля, вт
вт2000:00+6св599051 0.0 1016471
03:00+6св5991100 0.0 1015486
06:00+5св4893100 0.0 1014502
09:00+7св568999 0.1 1013492
12:00+7св569299 0.1 1012432
15:00+8всв478997 0.3 1011602
18:00+7св4792100 0.1 1009378
21:00+7св4893100 0.3 1008454
21 апреля, ср
ср2100:00+5ссв4792100 0.0 1007360
03:00+4ссз3694100 0.0 1007452
06:00+4зсз3694100 0.0 1007461
09:00+5зсз4693100 0.1 1008655
12:00+6з4685100 0.1 1009866
15:00+9з457199 0.3 10101217
18:00+9з457099 0.5 1011849
21:00+5юз22825 0.6 101216
22 апреля, чт
чт2200:00+4юз369179 0.0 1013124
03:00+3ю35936 0.0 101483
06:00+4ю379489 0.0 1014142
09:00+9ююз577938 0.0 1014428
12:00+14юз796114 0.7 10141334
15:00+15юз79545 2.3 10141772
18:00+14юз596797 1.4 1015745
21:00+11ю358069 2.0 101680
23 апреля, пт
пт2300:00+8ю369012 0.1 1016101
03:00+8ю49935 0.1 1016158
06:00+7ююв4109594 0.0 1016206
09:00+12ю6127762 0.0 1015503
12:00+16ю913565 0.1 10141668
15:00+17ююз9135810 0.9 10131951
18:00+13зюз81377100 2.5 10131373
21:00+6сз4791100 7.4 1015353
24 апреля, сб
сб2400:00+5зюз4789100 0.1 1016420
03:00+5юз4890100 0.9 1015425
06:00+4зюз4992100 0.1 1015401
09:00+5з6880100 0.1 1015909
12:00+6зюз7105897 0.2 10161903
15:00+6з895789 0.3 10171814
18:00+7зсз58515 0.1 10172112
21:00+3зюз33615 0.1 101734